Beaumont, TX

6:27 PM CST on January 23, 2018 (GMT -0600)
Southeast Texas Regional

Weather History for KBPT - February, 2013

Change the Weather History Date:

Wednesday, February 20, 2013

  Actual Average Record
Temperature  
Mean Temperature 54 °F 57 °F  
Max Temperature 58 °F 66 °F 82 °F (1910)
Min Temperature 50 °F 48 °F 32 °F (1908)
Degree Days  
Heating Degree Days 11 9  
Month to date heating degree days 131 207  
Since 1 July heating degree days 915 1150  
Cooling Degree Days 0 1  
Month to date cooling degree days 6 8  
Year to date cooling degree days 29 19  
Growing Degree Days 4 (Base 50)    
Moisture  
Dew Point 43 °F    
Average Humidity 62    
Maximum Humidity 80    
Minimum Humidity 44    
Precipitation  
Precipitation T in 0.12 in 1.31 in (2003)
Month to date precipitation 2.64 2.63  
Year to date precipitation 10.86 7.89  
Snow  
Snow 0.00 in 0.00 in 0.00 in ()
Month to date snowfall 0.0 0.0  
Since 1 July snowfall 0.0 T  
Snow Depth 0.00 in    
Sea Level Pressure  
Sea Level Pressure 30.04 in    
Wind  
Wind Speed 18 mph (East)    
Max Wind Speed 28 mph    
Max Gust Speed 35 mph    
Visibility 10 miles    
Events      
T = Trace of Precipitation, MM = Missing Value Source: NWS Daily Summary

Daily Weather History Graph

Daily Weather History Graph

Search for Another Location

Airport or City:

Trip Planner

Search our weather history database for the weather conditions in past years. The results will help you decide how hot, cold, wet, or windy it might be!

Date:

Astronomy

Feb. 20, 2013 Rise Set
Actual Time 6:50 AM CST 6:08 PM CST
Civil Twilight 6:26 AM CST 6:33 PM CST
Nautical Twilight 5:58 AM CST 7:01 PM CST
Astronomical Twilight 5:31 AM CST 7:28 PM CST
Moon 1:43 PM CST (2/20) 2:58 AM CST (2/20)
Length of Visible Light 12h 06m
Length of Day
11h 18m
Waxing Gibbous, 76% of the Moon is Illuminated
Feb 20
Waxing Gibbous
Feb 25
Full
Mar 4
Last Quarter
Mar 11
New
Mar 19
First Quarter

Hourly Weather History & Observations

Time (CST) Temp. Dew Point Humidity Pressure Visibility Wind Dir Wind Speed Gust Speed Precip Events Conditions
12:53 AM 53.1 °F 36.0 °F 52% 30.15 in 10.0 mi ENE 12.7 mph - N/A   Clear
1:53 AM 51.1 °F 37.0 °F 59% 30.15 in 10.0 mi ENE 10.4 mph - N/A   Clear
2:53 AM 50.0 °F 37.9 °F 63% 30.14 in 10.0 mi ENE 12.7 mph - N/A   Clear
3:53 AM 51.1 °F 36.0 °F 56% 30.12 in 10.0 mi East 18.4 mph 25.3 mph N/A   Clear
4:53 AM 51.1 °F 35.1 °F 54% 30.13 in 10.0 mi East 18.4 mph 26.5 mph N/A   Clear
5:53 AM 50.0 °F 33.1 °F 52% 30.14 in 10.0 mi East 16.1 mph - N/A   Clear
6:53 AM 50.0 °F 32.0 °F 50% 30.17 in 10.0 mi East 13.8 mph - N/A   Clear
7:53 AM 50.0 °F 33.1 °F 52% 30.17 in 10.0 mi East 19.6 mph - N/A   Mostly Cloudy
8:53 AM 52.0 °F 30.0 °F 43% 30.14 in 10.0 mi East 19.6 mph 28.8 mph N/A   Clear
9:53 AM 53.1 °F 34.0 °F 48% 30.14 in 10.0 mi East 17.3 mph 27.6 mph N/A   Clear
10:53 AM 55.0 °F 37.0 °F 51% 30.13 in 10.0 mi East 19.6 mph 25.3 mph N/A   Mostly Cloudy
11:53 AM 57.0 °F 42.1 °F 57% 30.08 in 10.0 mi East 20.7 mph 29.9 mph N/A   Clear
12:53 PM 57.0 °F 44.1 °F 62% 30.06 in 10.0 mi East 21.9 mph 27.6 mph N/A   Overcast
1:06 PM 55.4 °F 44.6 °F 67% 30.08 in 10.0 mi East 15.0 mph 24.2 mph N/A   Overcast
1:53 PM 55.9 °F 44.1 °F 64% 30.04 in 10.0 mi East 17.3 mph - N/A   Overcast
2:53 PM 55.9 °F 46.0 °F 69% 30.00 in 10.0 mi East 18.4 mph 28.8 mph N/A   Overcast
3:53 PM 57.0 °F 48.0 °F 72% 29.98 in 10.0 mi East 13.8 mph 24.2 mph N/A   Overcast
4:53 PM 57.0 °F 46.0 °F 67% 29.96 in 10.0 mi East 19.6 mph 26.5 mph N/A   Overcast
5:53 PM 57.0 °F 48.0 °F 72% 29.95 in 10.0 mi East 19.6 mph 25.3 mph N/A   Overcast
6:53 PM 57.0 °F 48.0 °F 72% 29.95 in 10.0 mi East 18.4 mph 24.2 mph 0.00 in   Overcast
7:53 PM 57.0 °F 48.0 °F 72% 29.94 in 10.0 mi East 20.7 mph 28.8 mph N/A   Overcast
8:53 PM 57.0 °F 46.0 °F 67% 29.93 in 10.0 mi East 18.4 mph 31.1 mph 0.00 in   Overcast
9:53 PM 57.2 °F 46.4 °F 67% 29.93 in 10.0 mi East 16.1 mph - N/A   Overcast
10:53 PM 57.0 °F 51.1 °F 81% 29.91 in 10.0 mi ESE 19.6 mph 28.8 mph N/A   Overcast
11:41 PM 57.2 °F 53.6 °F 88% 29.89 in 10.0 mi ESE 16.1 mph 27.6 mph 0.00 in   Overcast
11:53 PM 57.9 °F 53.1 °F 84% 29.88 in 10.0 mi ESE 21.9 mph 31.1 mph 0.00 in   Overcast